DELTA 1 DEB, 7136

Orbit data source: Space-Track

DELTA 1 DEB, 7136 is space debris in SSO originally from a launch on Tue, 06 Nov 1973 UTC launched from the Air Force Western Test Range (AFWTR). Debris objects in space refer to the collection of defunct objects orbiting the Earth. Examples of debris include non-operational satellites, rocket bodies, and fragments generated from explosions, collisions, or faulty payload assembly.

Loading next visibility...
Identifier
7136, 1973-086DA
Orbit
SSO
Country
Flag of USUS
Related business
Manufacturer
Unknown
Mission
Spacecraft
Bus & Motor
Unknown
Mass
Unknown
Launch date (UTC)
1973-11-06 (53 years ago)
Launch vehicle
Unknown
Launch site
Air Force Western Test Range (AFWTR)
Object type
Payload
Rocket body
Debris
Shape & HBR
Unknown shape, 0.1 m
Radar Cross Section
Medium (>0.1 m² and <1 m²)

Expand to show TLE details & history
Last TLE update: 20 hours ago

TLE from 20 hours ago
0 DELTA 1 DEB
1 07136U 73086DA  26208.85706196 -.00000104  00000-0 -37266-3 0  9995
2 07136 101.5998 186.1261 0050062   8.4796  20.5241 12.53974550406593
Epoch: 2026-07-27T20:34Z
TLE epoch observation values (Epoch: 2026-07-27T20:34:10.153Z)
Latitude
28.59791°
Longitude
-74.3441°
Altitude
1,414.494 km
Speed
7.173 km/s
True Right ascension
11h 58m 55s
True Declination
28° 27' 57"
Sunlit
Object was in daylight at epoch
Visualization orbit readout
Latitude
Unknown
Longitude
Unknown
Altitude
Unknown
Speed
Unknown
Apparent Right ascension
Unknown
Apparent Declination
Unknown
Sunlit
N/A
Visualization observer readout
Local Sidereal Time
06:28:59
Azimuth
Unknown
Elevation
Unknown
Doppler factor
Unknown
Orbital elements
Apogee altitude
1,484.614 km
Perigee altitude
1,406.281 km
Semi-major axis
7,823.584 km
Eccentricity
0.00501
Inclination
101.5998°
RAAN
186.1261°
Arg. of periapsis
8.4796°
True anomaly
20.72641°
Mean anomaly
20.5241°
Eccentric anomaly
20.62514°
Mean motion
3.13642 °/min
Orbital period
114.78 mins
BSTAR
-0.00037266
Loading maneuver chart data...
Computing Atmospheric mass density...
Loading historical data...
Loading historical data...
Loading historical data...
Loading historical data...
Loading historical data...
Loading historical data...
Loading historical data...

Documentation

Showing up to 5 results
|